| time (UTC) | temp C | wind direction | speed KPH | gust KPH | rain 1hr cm | rain 24hr cm | rain mn cm | humidity % | barometer mb |
| 20260503185002 | 17 | 310 | 16.1 | 25.7 | 0.00 | 0.00 | 0.00 | 21 | 1001.2 |
| 20260503184003 | 17 | 314 | 14.5 | 25.7 | 0.00 | 0.00 | 0.00 | 24 | 1000.9 |
| 20260503183003 | 16 | 314 | 20.9 | 25.7 | 0.00 | 0.00 | 0.00 | 23 | 1000.9 |
| 20260503182003 | 17 | 273 | 20.9 | 27.4 | 0.00 | 0.00 | 0.00 | 21 | 1000.9 |
| 20260503180004 | 16 | 317 | 22.5 | 37.0 | 0.00 | 0.00 | 0.00 | 23 | 1000.5 |
| 20260503175003 | 16 | 1 | 22.5 | 30.6 | 0.00 | 0.00 | 0.00 | 24 | 1000.5 |
| 20260503174003 | 16 | 1 | 17.7 | 30.6 | 0.00 | 0.00 | 0.00 | 24 | 1000.3 |
| 20260503173003 | 15 | 25 | 17.7 | 25.7 | 0.00 | 0.00 | 0.00 | 25 | 1000.3 |
| 20260503172002 | 16 | 243 | 17.7 | 22.5 | 0.00 | 0.00 | 0.00 | 25 | 1000.1 |
| 20260503171003 | 16 | 352 | 17.7 | 27.4 | 0.00 | 0.00 | 0.00 | 29 | 1000.1 |
| 20260503151003 | 10 | 324 | 17.7 | 24.1 | 0.00 | 0.00 | 0.00 | 34 | 998.6 |
| 20260503131003 | 10 | 267 | 12.9 | 17.7 | 0.00 | 0.00 | 0.00 | 34 | 997.5 |
| 20260503081002 | 0 | 337 | 0.0 | 3.2 | 0.00 | 0.00 | 0.00 | 55 | 1004.9 |
| 20260503072002 | 0 | 0 | 0.0 | 0.0 | 0.00 | 0.00 | 0.00 | 56 | 1005.3 |
| 20260503071002 | 0 | 0 | 0.0 | 0.0 | 0.00 | 0.00 | 0.00 | 55 | 1005.0 |
| 20260503054002 | 0 | 0 | 0.0 | 0.0 | 0.00 | 0.00 | 0.00 | 57 | 1006.0 |
| 20260503053002 | -1 | 0 | 0.0 | 0.0 | 0.00 | 0.00 | 0.00 | 58 | 996.8 |
| 20260503052002 | -1 | 337 | 0.0 | 1.6 | 0.00 | 0.00 | 0.00 | 59 | 1005.9 |
| 20260503051003 | -1 | 337 | 0.0 | 1.6 | 0.00 | 0.00 | 0.00 | 59 | 1005.9 |
| 20260503050002 | -1 | 337 | 0.0 | 1.6 | 0.00 | 0.00 | 0.00 | 60 | 996.9 |
| 20260503045003 | -1 | 337 | 0.0 | 1.6 | 0.00 | 0.00 | 0.00 | 59 | 1006.2 |
| 20260503044002 | -1 | 337 | 0.0 | 1.6 | 0.00 | 0.00 | 0.00 | 59 | 1005.9 |
| 20260503043002 | -1 | 337 | 0.0 | 1.6 | 0.00 | 0.00 | 0.00 | 58 | 1006.2 |
| 20260503042002 | 0 | 0 | 0.0 | 0.0 | 0.00 | 0.00 | 0.00 | 57 | 996.8 |
| 20260503041003 | 0 | 0 | 0.0 | 0.0 | 0.00 | 0.00 | 0.00 | 57 | 997.1 |
| 20260503040002 | 0 | 337 | 0.0 | 3.2 | 0.00 | 0.00 | 0.00 | 56 | 997.1 |
| 20260503035002 | 0 | 0 | 0.0 | 0.0 | 0.00 | 0.00 | 0.00 | 54 | 997.3 |
| 20260503034002 | 0 | 0 | 0.0 | 0.0 | 0.00 | 0.00 | 0.00 | 54 | 997.5 |
| 20260503033002 | 0 | 0 | 0.0 | 0.0 | 0.00 | 0.00 | 0.00 | 54 | 997.5 |
| 20260503032003 | 0 | 0 | 0.0 | 0.0 | 0.00 | 0.00 | 0.00 | 55 | 997.6 |
| 20260503031003 | 0 | 337 | 0.0 | 1.6 | 0.00 | 0.00 | 0.00 | 55 | 997.7 |
| 20260503030003 | 0 | 337 | 0.0 | 3.2 | 0.00 | 0.00 | 0.00 | 56 | 997.6 |
| 20260503025003 | 0 | 337 | 0.0 | 1.6 | 0.00 | 0.00 | 0.00 | 56 | 997.5 |
| 20260503024002 | 0 | 337 | 0.0 | 1.6 | 0.00 | 0.00 | 0.00 | 54 | 997.6 |
| 20260503023002 | 0 | 337 | 0.0 | 1.6 | 0.00 | 0.00 | 0.00 | 53 | 998.2 |
| 20260503022002 | 1 | 337 | 0.0 | 1.6 | 0.00 | 0.00 | 0.00 | 50 | 998.7 |
| 20260503021002 | 1 | 0 | 0.0 | 0.0 | 0.00 | 0.00 | 0.00 | 50 | 999.0 |
| 20260503020004 | 1 | 337 | 0.0 | 1.6 | 0.00 | 0.00 | 0.00 | 48 | 999.0 |
| 20260503015002 | 2 | 337 | 0.0 | 1.6 | 0.00 | 0.00 | 0.00 | 45 | 999.5 |
| 20260503014003 | 2 | 337 | 0.0 | 3.2 | 0.00 | 0.00 | 0.00 | 43 | 999.7 |
| 20260503013002 | 2 | 337 | 0.0 | 1.6 | 0.00 | 0.00 | 0.00 | 41 | 1000.6 |
| 20260503012003 | 3 | 0 | 0.0 | 0.0 | 0.00 | 0.00 | 0.00 | 44 | 1001.8 |
| 20260503011003 | 3 | 337 | 0.0 | 3.2 | 0.00 | 0.00 | 0.00 | 42 | 1002.2 |
| 20260503010002 | 4 | 0 | 0.0 | 0.0 | 0.00 | 0.00 | 0.00 | 38 | 1002.6 |
| 20260503005003 | 5 | 337 | 0.0 | 3.2 | 0.00 | 0.00 | 0.00 | 35 | 1003.0 |
| 20260503003003 | 6 | 338 | 3.2 | 6.4 | 0.00 | 0.00 | 0.00 | 31 | 1003.9 |
| 20260503002002 | 7 | 337 | 3.2 | 4.8 | 0.00 | 0.00 | 0.00 | 29 | 1004.6 |
| 20260503000003 | 7 | 337 | 4.8 | 6.4 | 0.00 | 0.00 | 0.00 | 28 | 1005.1 |
| 20260502235002 | 7 | 338 | 4.8 | 9.7 | 0.00 | 0.00 | 0.00 | 30 | 1004.2 |
| 20260502232002 | 8 | 338 | 4.8 | 8.0 | 0.00 | 0.00 | 0.00 | 29 | 1005.1 |
| 20260502231003 | 8 | 337 | 4.8 | 8.0 | 0.00 | 0.00 | 0.00 | 30 | 1005.5 |
| 20260502230002 | 9 | 337 | 4.8 | 6.4 | 0.00 | 0.00 | 0.00 | 32 | 1005.6 |
| 20260502225003 | 8 | 338 | 4.8 | 12.9 | 0.00 | 0.00 | 0.00 | 32 | 1003.9 |
| 20260502224003 | 8 | 338 | 3.2 | 9.7 | 0.00 | 0.00 | 0.00 | 32 | 1003.9 |
| 20260502223002 | 8 | 338 | 6.4 | 12.9 | 0.00 | 0.00 | 0.00 | 30 | 1004.1 |
| 20260502222002 | 8 | 337 | 9.7 | 14.5 | 0.00 | 0.00 | 0.00 | 28 | 1004.2 |
| 20260502221003 | 8 | 337 | 4.8 | 14.5 | 0.00 | 0.00 | 0.00 | 29 | 1004.2 |
| 20260502214002 | 10 | 1 | 8.0 | 11.3 | 0.00 | 0.00 | 0.00 | 29 | 1004.5 |
| 20260502213003 | 8 | 1 | 9.7 | 14.5 | 0.00 | 0.00 | 0.00 | 28 | 1004.0 |
| 20260502212003 | 8 | 1 | 9.7 | 17.7 | 0.00 | 0.00 | 0.00 | 28 | 1004.1 |
| 20260502211003 | 8 | 1 | 8.0 | 12.9 | 0.00 | 0.00 | 0.00 | 28 | 1004.2 |
| 20260502210002 | 8 | 1 | 6.4 | 11.3 | 0.00 | 0.00 | 0.00 | 30 | 1004.5 |
| 20260502205003 | 8 | 1 | 6.4 | 12.9 | 0.00 | 0.00 | 0.00 | 29 | 1004.5 |
| 20260502204002 | 8 | 1 | 8.0 | 12.9 | 0.00 | 0.00 | 0.00 | 27 | 1004.7 |
| 20260502203003 | 8 | 1 | 8.0 | 14.5 | 0.00 | 0.00 | 0.00 | 27 | 1005.1 |
| 20260502202003 | 8 | 1 | 9.7 | 12.9 | 0.00 | 0.00 | 0.00 | 24 | 1005.2 |
| 20260502201002 | 10 | 1 | 11.3 | 14.5 | 0.00 | 0.00 | 0.00 | 24 | 1005.4 |
| 20260502200003 | 10 | 1 | 9.7 | 12.9 | 0.00 | 0.00 | 0.00 | 26 | 1005.3 |
| 20260502194002 | 10 | 1 | 9.7 | 17.7 | 0.00 | 0.00 | 0.00 | 23 | 1004.8 |
| 20260502193003 | 10 | 1 | 8.0 | 12.9 | 0.00 | 0.00 | 0.00 | 27 | 1004.9 |
| 20260502192004 | 9 | 1 | 9.7 | 14.5 | 0.00 | 0.00 | 0.00 | 24 | 1004.8 |
| 20260502190002 | 10 | 1 | 8.0 | 14.5 | 0.00 | 0.00 | 0.00 | 25 | 1004.8 |